Theta_e
356 356 357 357 363 364 348 345 346 345 343 343 345 345 345 346 348 349 346 348 347 343 340 341 341 341 338 339 340 339 341 342 339 340 335 339 338 342 343 340 341 343 339 337 337 335 340 334 333
356 357 354 359 364 349 349 345 345 346 343 345 348 345 346 346 346 347 348 347 346 347 343 339 341 341 341 341 341 339 341 341 337 338 339 342 342 343 343 344 343 340 337 337 330 327 327 338 327
355 358 360 362 353 347 347 343 344 342 345 346 349 346 344 345 345 346 348 346 347 348 341 338 341 341 342 343 342 339 341 340 336 339 337 343 343 342 342 342 340 335 332 329 326 322 319 319 324
359 359 361 358 349 347 345 343 342 344 344 347 347 347 346 346 346 345 348 347 348 348 339 339 342 344 344 344 343 339 341 338 341 340 341 342 341 340 340 339 336 335 332 331 327 322 317 316 321
359 356 364 347 345 344 344 343 344 344 343 348 347 348 347 346 345 346 346 349 349 348 338 340 342 343 343 343 342 340 341 336 341 342 342 338 340 339 340 338 337 336 336 334 330 326 321 318 323
352 351 361 348 346 347 344 342 343 345 343 348 349 348 348 346 346 346 347 347 347 349 342 340 342 341 339 339 340 339 340 342 343 341 335 334 335 336 339 337 340 341 341 340 338 333 326 327 331
346 358 353 347 348 345 344 343 342 343 345 346 348 349 347 347 346 347 348 345 348 347 343 341 340 339 339 339 339 339 339 341 336 333 335 336 334 334 338 338 341 342 343 341 340 338 335 334 336
355 359 356 354 347 346 342 342 343 345 343 345 346 346 347 345 346 345 348 347 346 346 349 346 341 339 338 338 339 336 338 337 336 341 334 331 328 328 337 340 342 343 341 342 347 344 345 343 339
342 361 362 355 347 345 344 342 341 342 343 343 345 345 346 346 345 348 348 346 344 347 348 344 343 344 342 337 338 337 339 337 344 348 348 352 349 342 335 341 342 343 346 348 349 349 349 348 344
343 359 359 347 346 345 345 343 343 344 344 345 344 346 345 345 345 345 344 344 346 344 347 349 350 350 345 346 339 338 344 343 345 351 350 350 350 345 338 340 343 346 348 350 349 350 350 351 351
352 359 354 351 348 346 346 344 346 346 347 345 345 345 344 344 345 344 345 345 345 343 346 348 348 349 349 344 347 348 351 350 345 348 349 346 345 338 335 339 344 348 348 351 349 350 349 349 350
356 354 352 353 352 351 350 346 344 343 343 346 344 344 344 344 345 344 344 344 345 344 346 349 349 350 350 347 348 346 349 353 347 346 349 346 349 350 345 346 344 348 347 350 350 348 351 346 347
355 354 353 353 354 353 353 352 348 344 343 345 344 344 344 343 344 343 344 346 345 345 348 348 347 348 348 348 349 349 350 349 351 348 346 350 346 348 347 343 347 346 350 350 350 349 351 349 348
355 354 355 355 354 352 352 354 351 346 342 344 344 344 343 343 343 342 343 345 346 345 347 348 348 348 346 349 347 348 348 350 348 350 343 350 349 347 349 344 344 344 351 349 346 347 350 348 349
354 357 354 356 354 354 354 357 358 348 344 343 344 344 343 342 342 342 342 344 346 345 347 348 347 345 347 347 347 348 348 348 347 348 348 348 351 348 346 348 344 347 342 350 349 349 350 349 349
357 355 362 354 354 352 353 361 356 350 347 344 344 344 344 344 343 343 342 344 345 345 346 348 346 346 348 350 344 348 348 348 347 347 346 345 352 346 350 345 345 347 350 347 348 348 351 349 349
353 355 358 357 353 356 357 358 354 351 349 347 345 346 346 346 345 343 343 343 344 345 346 348 347 347 349 347 345 349 349 349 346 345 348 339 349 343 350 347 347 345 348 348 349 355 349 349 349
349 348 343 354 345 342 350 354 353 352 351 349 347 346 346 346 346 344 343 342 344 346 346 348 347 348 347 348 349 348 349 347 346 345 347 349 343 339 348 351 350 342 348 347 350 353 347 350 353
344 343 344 339 338 336 339 341 351 352 352 351 349 347 346 346 346 344 341 341 343 345 347 348 347 348 348 349 349 349 348 345 347 346 347 348 348 341 346 352 348 340 348 348 350 345 355 348 351
340 342 344 340 337 338 343 342 346 351 351 351 352 350 347 346 346 345 342 342 343 344 346 347 348 348 348 348 347 347 346 347 347 347 347 350 348 349 340 348 351 347 345 344 346 348 354 355 353
334 337 337 339 335 335 337 344 344 352 350 351 351 352 350 347 346 346 344 345 346 344 344 347 348 349 347 347 348 347 348 347 348 348 348 348 346 350 347 342 351 350 346 350 345 340 346 351 352
329 328 329 330 329 331 337 344 346 349 352 350 351 351 351 350 347 346 346 345 347 346 344 347 350 351 349 348 349 350 349 346 349 350 349 349 348 347 349 346 346 348 349 348 351 352 355 353 349
328 326 326 327 326 326 328 335 339 348 352 352 350 351 351 351 350 348 347 348 347 347 348 348 349 351 352 346 352 351 350 349 349 346 350 349 349 349 348 349 352 344 348 343 347 353 351 352 351
325 324 325 325 326 325 327 327 331 345 348 352 351 350 349 352 351 350 348 348 348 348 347 350 350 350 350 353 350 354 351 352 351 351 351 350 350 351 348 348 347 347 345 344 351 352 350 352 350
325 325 326 327 326 326 329 328 337 343 344 345 347 347 345 345 348 349 351 349 348 349 348 348 350 350 349 349 349 353 353 350 353 352 349 352 351 352 351 345 349 346 348 340 344 354 350 347 347
327 324 325 327 328 329 331 331 341 340 339 339 338 338 338 338 339 341 345 349 350 349 349 348 349 349 348 347 346 348 350 350 350 353 352 350 352 350 351 349 343 348 348 344 348 347 351 352 347
325 327 326 325 326 325 329 337 337 337 337 336 334 334 334 335 336 337 338 340 343 347 349 349 348 349 349 348 347 344 346 347 344 351 354 353 349 351 349 348 348 346 344 345 338 347 352 350 353
322 324 323 326 325 325 326 328 333 339 335 334 331 330 329 329 332 334 336 337 339 340 341 351 351 349 350 349 348 347 344 344 344 346 354 352 353 349 351 349 348 347 347 346 346 344 348 350 351
323 325 323 323 323 324 326 333 336 337 333 331 327 325 324 326 329 331 333 336 339 341 342 346 357 357 352 353 350 349 349 348 346 345 349 354 352 353 348 353 351 347 346 340 341 342 349 350 352
324 325 324 324 327 327 326 325 333 331 329 326 324 323 322 323 328 330 332 335 338 341 343 344 350 356 352 352 353 351 352 352 354 349 344 352 354 352 354 348 352 349 348 350 342 340 340 346 351
Wind_Speed
8 10 7 8 4 5 15 17 24 18 18 22 27 25 20 13 8 15 23 20 19 13 14 13 12 12 13 11 11 15 14 17 18 19 20 21 20 20 20 20 18 17 19 18 17 15 16 15 16
1 8 3 2 3 12 7 14 14 20 18 25 27 33 26 25 33 30 30 20 20 19 13 14 12 12 12 12 13 17 16 17 17 18 19 20 20 20 19 18 18 18 18 17 16 15 14 12 14
2 5 5 3 6 11 13 18 14 15 11 20 26 27 21 27 25 28 27 26 20 20 12 14 12 13 15 17 17 19 17 17 17 18 18 19 18 19 19 19 18 18 18 17 16 16 15 14 15
3 5 10 1 15 16 15 15 15 12 19 17 24 16 25 26 29 28 28 23 20 17 14 15 12 15 19 20 21 20 19 17 16 17 17 16 17 17 17 19 19 19 17 18 17 18 18 17 18
4 6 6 13 18 17 15 13 14 14 18 26 28 22 19 29 28 26 25 23 23 18 17 18 21 25 24 23 25 23 19 18 16 15 15 15 15 16 16 17 18 18 18 18 20 21 21 20 22
9 3 4 12 15 18 11 15 16 19 16 27 26 21 23 25 25 23 24 20 19 22 15 20 22 22 24 23 26 24 19 17 15 14 14 14 13 14 15 17 17 18 19 21 23 24 25 26 25
10 3 6 11 17 15 9 13 15 13 19 22 26 20 22 24 21 22 22 19 24 21 14 19 22 22 21 19 23 24 18 17 13 14 13 13 12 12 14 15 17 18 20 21 24 27 29 27 29
14 3 15 5 13 16 11 15 14 20 16 21 20 16 21 23 23 20 20 25 21 19 20 18 20 21 18 17 24 23 13 13 15 16 16 18 14 15 16 14 16 19 21 21 20 22 26 28 27
25 5 4 4 16 12 18 17 17 16 15 10 19 27 29 26 23 25 24 18 19 19 15 14 16 17 14 17 24 13 11 14 18 16 16 15 12 10 14 15 17 21 22 20 15 14 13 20 25
5 3 8 11 13 10 13 19 14 16 15 16 28 26 25 24 22 22 20 21 21 18 19 16 18 19 13 14 15 14 12 13 15 5 12 12 16 8 14 15 18 17 12 17 17 12 13 9 14
14 3 9 11 11 14 16 7 22 5 17 18 24 27 25 23 22 20 20 19 19 16 22 27 14 19 20 13 12 8 7 6 8 12 14 10 11 12 12 11 7 9 12 14 11 15 14 15 11
4 8 13 8 10 10 6 6 14 13 14 19 24 26 26 22 22 19 20 19 20 16 24 21 21 23 18 14 15 11 7 10 4 13 9 15 7 3 7 5 8 9 10 11 11 11 14 12 12
5 7 10 8 16 14 7 11 11 12 16 19 25 24 24 22 20 17 18 20 21 18 22 21 19 18 13 17 16 15 14 12 10 6 12 7 7 8 4 9 1 8 6 6 6 8 10 10 8
5 12 11 7 13 8 4 1 6 14 17 21 22 23 22 20 19 18 17 17 20 18 20 22 20 17 16 15 20 16 14 8 6 7 11 11 7 12 6 10 8 3 3 5 9 11 11 12 7
22 12 8 3 3 4 2 3 6 17 17 19 20 20 19 19 18 19 17 18 18 19 18 21 18 18 16 20 19 17 11 11 10 10 8 17 9 14 10 5 8 4 5 6 8 6 7 4 2
8 7 4 7 6 9 10 3 16 17 19 18 19 19 17 17 18 18 18 18 17 19 20 18 16 18 17 13 18 18 14 11 13 10 9 16 8 17 13 7 6 6 4 3 3 4 6 4 4
5 4 10 10 7 11 8 11 15 18 19 18 18 19 18 17 17 18 18 19 19 19 22 18 19 20 17 19 19 14 13 12 11 11 8 8 13 19 15 7 10 7 5 2 2 2 5 4 4
6 3 7 12 11 7 8 10 14 19 19 21 18 18 18 19 19 19 20 19 20 20 22 19 22 20 21 18 18 16 14 18 13 12 14 10 7 17 15 9 7 10 6 6 6 5 3 5 5
10 6 4 12 7 4 4 1 15 19 17 19 21 21 20 20 19 20 20 21 21 22 22 24 23 21 22 21 21 18 16 15 13 14 14 14 11 15 20 12 9 10 4 8 6 6 3 3 4
10 10 9 13 10 7 3 11 11 20 20 21 20 23 21 19 21 24 22 22 22 24 24 25 24 24 24 22 18 19 16 15 13 15 20 14 13 14 22 15 11 6 6 9 11 7 3 4 4
10 11 13 5 4 12 11 10 15 20 22 22 23 23 21 22 23 25 24 24 21 24 26 26 27 27 28 23 19 19 20 21 20 19 20 21 19 20 16 19 15 12 13 8 6 6 8 4 1
12 11 10 8 9 11 11 6 11 15 18 13 18 24 27 25 23 27 27 25 24 25 25 25 26 27 23 26 22 23 24 27 21 21 20 18 15 20 18 19 21 15 10 11 10 9 8 5 5
6 12 9 11 12 13 14 8 7 17 12 18 24 11 17 27 26 27 26 27 24 23 26 26 26 27 24 28 26 24 23 19 21 22 20 23 18 16 21 22 19 23 16 17 12 13 15 10 7
9 12 14 15 13 11 14 11 12 11 10 12 18 18 3 10 16 25 30 29 27 25 25 27 27 25 26 25 28 25 26 25 21 21 22 23 20 20 20 23 24 21 19 20 15 17 21 14 12
9 13 10 9 9 11 16 11 5 14 19 21 19 20 21 16 13 5 7 29 30 27 27 28 32 29 26 29 27 30 27 26 25 22 24 23 22 23 20 26 26 23 23 19 22 16 17 19 16
8 8 6 7 8 10 9 4 10 16 21 22 19 17 16 16 15 17 14 3 14 25 28 29 32 35 32 28 32 31 33 28 30 26 24 27 24 21 26 19 27 27 24 21 22 20 19 19 18
6 3 14 9 13 9 7 20 17 18 16 17 16 16 14 12 14 15 15 17 11 5 7 28 32 36 37 35 31 34 33 35 31 31 23 24 28 23 26 25 22 23 24 27 22 26 21 18 19
8 11 7 5 4 6 11 8 4 19 16 13 14 16 13 12 13 12 13 15 14 15 17 13 28 37 41 38 36 34 36 35 34 31 31 31 24 28 19 29 28 26 26 27 28 24 22 22 22
7 7 6 10 8 10 10 7 17 17 14 11 14 15 13 10 10 12 13 15 16 19 22 23 21 23 43 41 38 37 34 38 36 36 34 33 32 26 30 21 28 28 26 26 28 31 29 25 26
7 12 12 9 8 9 10 11 17 14 13 8 11 9 8 9 10 11 12 15 17 20 24 27 21 19 39 42 40 38 34 34 37 39 38 35 37 34 28 34 26 30 29 26 29 29 30 29 30
Wind_Direction
59 35 344 273 242 247 113 85 37 83 75 69 94 74 83 94 65 104 131 137 109 119 112 115 135 144 145 146 129 124 107 105 101 100 96 96 98 99 98 95 93 84 83 81 81 86 88 83 93
97 277 163 260 262 102 94 102 129 79 100 83 75 83 79 90 102 123 126 130 130 125 124 118 125 143 153 154 139 132 112 110 101 97 100 98 100 95 91 91 91 87 80 77 76 76 82 93 95
82 269 280 195 138 75 78 84 80 94 126 98 79 73 98 111 113 119 128 129 131 129 134 115 112 134 147 154 149 139 122 112 104 100 101 99 100 93 90 90 90 83 78 73 73 73 77 86 100
346 267 249 29 70 76 87 109 124 106 90 120 97 87 88 110 116 125 131 133 129 127 132 111 106 131 141 147 146 144 126 119 109 108 105 99 102 93 88 91 86 83 80 73 71 71 73 79 96
286 238 271 84 80 84 98 88 133 112 81 90 102 96 93 109 123 127 127 119 119 124 128 111 108 115 124 134 144 145 132 121 114 114 106 104 102 94 93 93 90 86 81 78 74 70 71 79 95
343 23 255 95 96 78 73 86 81 80 88 101 100 109 108 120 129 136 134 130 125 129 131 119 118 117 118 126 138 137 130 120 115 108 103 103 98 97 101 100 94 86 82 77 75 72 72 78 89
170 238 92 90 79 74 58 103 88 113 115 120 113 118 129 137 137 131 132 128 132 122 133 129 129 125 118 118 143 134 114 115 106 96 93 94 95 103 106 107 95 86 77 81 79 75 74 81 83
38 321 105 274 96 95 84 61 58 82 81 122 126 138 137 145 141 141 142 132 119 128 136 133 136 134 129 121 140 141 103 105 97 92 93 86 78 104 114 108 94 81 81 82 74 78 79 78 76
6 19 349 354 105 126 118 90 86 110 127 83 98 143 144 149 145 141 139 132 127 134 122 131 126 124 132 125 138 149 114 105 100 92 95 99 85 78 122 110 93 86 82 71 61 58 65 79 74
16 317 186 108 106 85 87 114 130 124 117 107 119 128 141 146 153 146 147 152 148 148 153 155 149 147 132 143 135 130 112 118 113 86 108 88 108 111 122 111 97 77 59 60 51 45 31 68 78
186 115 90 81 94 101 84 65 101 290 130 136 138 141 150 153 156 156 157 153 157 154 159 162 146 143 152 156 118 119 122 135 144 140 101 97 126 120 113 105 68 40 39 35 62 57 60 50 86
109 124 111 121 79 94 80 149 62 60 80 130 146 150 152 160 161 164 159 162 157 154 158 157 144 161 162 145 155 151 183 158 145 152 131 139 141 122 158 131 82 81 55 58 77 95 80 58 87
105 95 107 94 89 51 22 46 94 95 109 132 146 154 158 165 162 167 162 163 156 152 155 149 161 160 164 162 177 169 163 170 181 193 143 120 135 148 131 159 164 146 49 59 87 98 91 109 91
149 103 95 111 72 87 64 332 76 120 131 138 151 160 166 167 168 167 167 165 158 163 162 153 148 155 158 173 177 175 162 159 166 210 170 142 184 147 201 131 112 154 53 134 89 85 68 77 85
70 99 103 43 91 115 308 64 291 144 143 147 159 166 170 171 174 172 175 173 169 169 171 162 164 174 184 179 182 161 173 194 167 200 201 166 161 150 141 135 148 170 97 54 50 31 47 78 86
126 84 178 150 199 101 84 263 217 161 154 159 163 169 170 174 179 176 177 177 178 173 178 167 177 178 194 174 185 165 178 184 175 220 243 178 158 160 142 164 147 210 121 58 86 49 42 180 95
177 179 154 139 218 151 119 284 148 171 170 167 172 175 178 176 179 179 183 183 182 181 179 175 181 176 192 181 169 177 191 178 184 200 242 192 177 164 149 178 208 205 130 166 196 96 189 68 343
97 261 121 136 157 202 212 205 159 175 189 171 179 181 184 182 185 183 186 186 183 186 186 184 181 186 190 196 178 178 210 192 182 195 218 228 206 173 158 150 212 179 137 228 226 196 172 136 337
297 306 133 130 154 217 301 224 167 176 195 182 178 184 189 188 184 180 188 186 186 187 190 189 188 192 198 197 181 190 202 193 185 197 216 226 215 199 175 165 236 197 173 223 214 193 221 26 288
305 307 305 143 171 210 199 296 204 174 190 197 184 181 190 188 180 178 185 187 190 189 194 194 194 197 200 193 199 190 197 203 197 199 209 219 221 221 198 183 194 242 209 247 242 205 218 285 246
273 277 314 322 155 218 235 197 262 168 183 201 190 182 188 188 185 181 183 190 193 192 197 201 197 203 206 195 196 195 210 203 203 206 215 220 234 202 221 199 186 204 218 228 226 219 210 248 347
275 23 340 345 301 285 315 254 185 173 183 184 199 183 183 188 188 179 184 192 196 196 201 205 205 207 210 187 202 202 211 209 203 199 222 234 234 219 213 202 201 205 207 213 216 222 222 242 225
301 7 323 298 283 279 269 261 273 175 186 198 200 155 195 179 181 185 188 192 200 201 202 205 217 207 212 198 193 212 210 207 211 213 212 220 231 237 214 209 211 215 196 201 219 243 223 220 240
306 295 269 254 252 258 253 252 268 191 63 121 100 126 312 227 293 188 185 188 192 202 204 209 216 223 212 219 201 203 219 207 212 218 214 217 226 235 233 214 217 219 222 213 215 232 240 214 214
230 252 268 238 216 238 225 213 119 112 118 107 128 135 125 116 166 165 281 185 189 196 204 209 219 225 231 217 219 210 208 215 208 216 210 217 220 231 241 216 221 224 221 227 222 219 232 244 249
331 328 306 319 333 345 45 91 91 87 92 98 98 83 67 55 49 34 58 180 203 202 205 208 221 226 230 234 229 222 217 216 216 218 216 211 222 220 235 242 220 226 228 235 221 224 238 236 250
21 287 342 313 289 275 276 109 127 128 126 117 103 86 64 45 42 28 11 21 34 300 298 220 218 232 231 235 237 234 229 225 221 217 217 227 217 221 228 237 237 237 238 238 230 224 224 235 243
251 329 308 234 281 268 277 258 290 149 136 112 89 78 55 28 25 17 358 349 353 340 326 293 236 229 233 231 234 238 238 234 229 221 217 224 224 222 222 233 233 235 247 244 232 232 234 231 240
176 239 211 263 287 305 302 82 62 93 109 102 74 59 38 18 10 3 348 346 336 332 331 315 314 308 227 227 230 234 239 238 237 229 224 224 223 220 226 237 235 239 247 245 232 230 226 233 248
307 303 303 294 288 261 270 289 109 115 118 113 89 78 38 354 356 359 347 342 337 332 328 328 321 352 217 227 223 228 236 238 239 240 231 228 227 224 223 229 234 238 247 247 236 235 236 234 236